ECMWFFLT1_sfc_thetae_021.txt.gz
Theta_e
278 278 278 277 277 278 276 276 276 275 275 275 275 274 274 274 274 273 273 273 273 273 273 272 272 272 272 272 273 272 272 271 272 272 272 272 272 273 272 272 271 271 271 271 271 271 271 271 271 272 272 272 272 273 275 277 278 279 280 283 285 287
278 277 277 277 277 276 276 275 275 275 275 274 274 274 273 273 273 273 272 272 272 272 272 272 272 272 272 272 272 271 271 271 271 272 271 272 272 272 272 271 271 271 271 271 270 270 271 271 271 271 271 272 272 274 275 276 278 279 280 282 284 286
277 276 276 276 275 275 276 275 275 275 274 273 273 273 272 272 272 272 272 272 271 271 270 270 271 271 271 271 271 271 271 271 272 271 272 272 271 271 271 271 271 271 271 270 270 270 270 270 270 271 271 271 272 273 273 275 276 278 279 281 284 286
277 276 275 275 274 274 274 274 274 274 273 273 273 272 272 271 271 271 271 271 271 270 270 270 270 270 270 270 270 270 270 271 271 271 271 271 271 271 271 271 271 271 270 270 269 270 270 270 270 270 271 270 270 270 272 273 274 276 278 281 282 284
277 277 276 275 274 274 273 273 273 273 272 272 272 271 271 271 271 271 271 270 270 269 270 269 269 269 269 269 269 270 270 270 270 271 270 270 271 271 271 271 271 270 270 269 269 269 269 270 270 270 270 270 270 270 271 273 274 276 277 278 279 281
276 276 275 275 274 274 274 273 273 273 272 272 271 271 270 270 270 270 270 269 269 269 269 268 269 269 269 269 269 269 270 270 270 270 270 270 270 270 270 270 270 270 269 269 269 269 269 270 270 271 271 271 271 271 271 273 275 276 277 277 279 280
275 276 275 275 274 273 273 273 273 272 272 271 271 270 270 270 270 269 269 268 268 268 268 268 268 268 268 268 269 269 269 269 269 270 269 269 269 269 269 269 269 268 268 268 268 268 269 269 270 270 271 272 273 273 273 273 274 275 276 277 278 280
275 274 274 274 273 273 272 272 272 271 271 270 270 269 269 269 269 269 268 268 267 267 267 267 267 267 268 268 268 268 269 269 269 268 268 268 267 268 268 267 267 268 267 268 268 268 269 269 269 269 270 270 270 271 271 271 272 273 274 276 277 279
274 274 273 273 273 272 271 271 270 270 270 269 269 269 268 268 268 268 267 266 266 266 266 266 267 267 267 267 268 268 268 268 268 267 267 267 267 266 266 266 266 267 267 267 268 268 268 268 269 269 269 270 270 271 271 271 272 272 273 275 277 279
274 273 272 272 272 271 271 270 270 269 268 268 268 268 268 268 267 266 266 265 265 265 266 266 267 267 267 267 268 268 267 267 267 266 266 266 266 266 265 265 265 266 266 267 267 268 268 268 268 269 269 270 270 270 270 270 272 273 274 275 277 279
273 273 272 272 271 270 269 268 268 268 268 268 267 267 267 267 266 265 265 265 265 265 266 266 266 267 267 267 267 266 265 265 265 265 265 265 265 265 265 265 265 265 265 266 267 267 268 268 268 269 269 269 270 270 270 270 271 272 274 275 276 278
273 272 271 270 270 268 268 268 268 268 267 267 267 266 266 265 264 264 264 264 264 265 265 266 266 266 266 265 264 264 264 264 264 264 264 264 264 264 265 265 265 265 265 265 266 267 268 268 269 271 274 274 272 272 272 272 272 273 273 274 275 277
272 271 270 269 268 267 267 267 267 266 266 266 266 265 265 264 263 263 263 263 264 265 265 265 265 265 264 264 263 263 262 263 262 262 263 263 263 263 264 264 264 265 265 265 266 267 268 268 269 273 275 276 277 274 273 274 275 275 276 276 276 277
272 270 269 268 267 266 266 265 265 264 264 265 265 264 264 263 263 262 263 263 264 264 264 264 264 263 262 262 261 261 261 262 261 261 262 262 263 263 264 264 264 265 266 266 267 267 268 268 272 274 275 276 277 277 274 273 273 273 273 275 276 277
272 270 268 267 266 266 265 265 264 264 264 263 264 263 262 262 262 262 262 262 263 263 263 262 262 261 261 261 261 261 261 261 261 261 262 262 263 264 264 264 264 265 266 266 267 267 268 268 272 274 276 276 277 277 276 273 273 273 273 274 275 278
271 269 268 267 266 266 265 265 264 263 263 263 262 262 262 261 261 261 261 262 262 262 262 261 260 260 260 260 260 260 260 261 261 262 263 263 264 264 264 264 264 265 266 267 267 267 268 269 272 275 276 276 277 277 277 274 273 274 274 274 276 278
270 268 267 266 265 265 264 263 263 262 262 262 261 261 261 260 260 260 261 261 261 261 260 260 259 259 259 259 260 260 260 261 261 262 263 264 264 264 264 264 265 266 266 267 268 268 268 269 274 276 276 277 277 277 277 274 274 274 274 275 276 278
269 267 266 266 264 264 263 262 262 261 260 261 260 260 260 260 259 259 260 259 259 259 259 259 258 258 258 259 259 259 260 261 262 262 263 263 264 264 264 264 265 265 266 267 268 268 268 269 275 276 277 277 277 278 275 274 274 274 274 276 277 278
267 266 265 264 263 262 262 261 260 260 259 259 259 259 259 259 258 259 259 258 258 258 258 258 258 257 258 258 258 259 260 261 262 262 263 263 263 263 263 263 264 265 266 266 267 268 269 269 273 276 276 277 277 277 274 274 273 274 274 275 277 279
265 265 264 263 262 261 261 260 259 259 258 258 258 257 258 257 258 258 258 257 257 257 257 257 257 257 257 258 258 259 261 262 262 262 263 262 261 261 262 263 263 265 266 266 267 268 268 270 273 276 277 277 278 277 274 273 273 273 274 276 278 279
264 264 263 262 260 260 260 259 258 257 257 257 257 257 257 257 257 257 257 257 257 257 257 257 257 257 257 258 259 260 260 261 261 262 262 262 261 261 262 263 263 264 265 266 268 271 271 271 273 276 277 278 278 277 275 274 273 272 273 275 276 278
263 262 261 260 260 259 259 258 257 256 257 256 256 256 256 256 257 257 257 257 256 256 256 256 256 257 257 258 259 260 261 261 261 261 261 261 261 261 262 263 263 263 265 266 268 269 270 271 272 274 277 277 278 279 276 275 273 272 273 274 276 277
262 261 261 260 259 259 258 257 256 256 256 256 256 255 256 256 257 256 256 256 255 255 255 256 257 257 258 259 259 260 260 261 261 261 260 260 260 261 261 262 263 264 265 266 267 269 270 271 272 274 277 278 279 279 279 276 275 274 274 275 276 277
261 260 260 259 259 258 257 256 255 255 255 255 255 255 256 256 256 255 255 254 254 254 255 255 256 258 258 259 259 259 259 260 260 260 260 260 260 260 261 262 263 263 264 266 268 269 270 272 274 272 275 277 279 281 281 277 276 277 276 276 277 277
260 259 259 258 258 258 258 255 255 254 254 254 255 256 256 255 255 254 254 253 253 254 254 255 256 257 258 259 259 258 258 259 259 259 259 260 260 261 261 262 262 263 264 266 267 269 270 271 271 274 273 276 278 280 280 281 280 281 279 277 277 278
259 258 258 258 257 257 257 255 254 254 253 254 255 256 255 254 254 253 252 252 253 253 254 255 256 257 258 258 258 258 258 258 258 259 259 260 261 261 261 261 262 264 264 265 266 268 269 269 270 272 274 274 277 279 280 281 282 283 280 279 279 280
258 257 257 257 256 256 255 255 253 253 253 255 255 254 254 253 252 251 251 251 252 253 254 255 256 257 257 258 258 257 257 257 258 258 259 260 261 261 261 261 263 264 264 265 266 267 267 268 269 270 272 275 276 278 279 280 281 282 284 282 281 281
256 256 255 256 256 256 255 254 254 251 253 254 254 254 253 251 250 250 250 251 252 252 254 255 256 257 257 257 257 257 257 257 257 258 259 260 261 261 261 262 264 264 264 265 266 266 266 267 268 269 270 272 274 276 277 279 280 281 282 283 283 284
255 255 255 254 255 255 255 253 254 254 254 253 254 253 251 249 249 250 250 250 251 252 254 255 256 256 256 256 257 257 257 257 257 258 259 260 261 261 262 264 263 263 264 265 265 265 266 266 267 268 270 271 273 274 275 276 277 280 281 282 284 284
256 255 255 255 255 255 254 253 253 252 252 252 252 250 248 248 249 249 249 250 251 253 254 255 257 256 255 256 256 256 256 257 257 258 259 260 261 262 263 264 264 263 264 265 265 264 265 265 267 268 270 271 272 273 274 275 276 277 279 281 284 285
255 255 255 255 255 254 253 252 252 251 252 253 250 249 247 249 249 249 249 251 252 252 255 255 255 255 255 255 255 256 257 256 258 259 260 262 264 265 265 264 264 265 265 266 265 264 264 265 266 268 274 273 275 274 274 274 275 277 279 281 284 285
255 255 254 255 254 253 252 251 251 251 253 251 250 248 247 248 248 248 249 251 251 252 254 254 254 254 255 254 255 255 256 260 264 263 261 262 267 270 271 270 265 266 267 266 266 266 265 265 267 274 275 275 275 276 277 278 280 282 281 282 284 285
255 254 254 254 253 252 251 251 251 250 251 252 251 250 247 247 247 248 249 250 250 253 254 254 254 254 254 254 255 255 255 255 257 262 265 267 267 268 270 270 270 271 271 268 266 267 271 271 273 274 274 274 275 275 276 277 278 281 284 285 284 284
254 254 254 254 252 251 250 250 250 249 249 249 249 249 247 247 247 247 248 250 251 253 254 254 254 254 253 254 255 254 254 254 254 255 261 265 266 267 268 269 269 269 270 271 270 268 265 268 271 273 273 273 273 274 274 274 275 277 279 284 287 284
255 254 254 252 251 250 250 248 248 248 249 249 248 248 246 246 246 246 248 249 251 253 254 254 253 253 253 253 253 253 254 253 253 252 253 256 263 265 266 267 268 268 269 270 271 271 270 269 270 271 272 272 272 272 272 272 273 274 275 274 274 278
254 253 253 251 250 249 249 250 249 249 249 248 248 246 244 244 245 246 247 249 252 253 253 253 253 252 252 253 254 253 253 253 253 253 253 253 254 256 260 263 266 266 267 268 270 270 270 270 269 270 270 271 270 271 270 269 266 271 271 269 265 268
253 252 252 252 251 250 250 246 244 247 246 245 244 244 244 244 246 247 250 252 254 251 252 252 253 252 252 253 253 253 253 252 253 253 253 252 252 252 253 253 255 261 265 264 265 268 269 268 268 269 269 269 269 269 268 267 260 259 260 261 261 264
252 252 252 251 250 250 246 245 248 248 245 244 243 243 244 244 245 247 249 250 252 252 252 252 251 251 252 253 253 253 252 253 253 252 252 253 253 253 252 253 254 255 260 265 265 268 267 267 267 267 267 267 268 267 265 257 257 257 258 259 259 260

ECMWFFLT1_sfc_thetae_024.txt.gz
Theta_e
279 279 279 279 279 279 278 277 276 276 275 275 274 274 274 274 274 273 273 273 273 273 272 271 271 271 271 271 271 271 270 270 270 271 271 271 272 272 272 271 271 271 271 271 271 271 271 271 271 271 271 271 270 270 270 271 271 270 270 271 272 272
279 278 278 278 277 277 277 276 275 275 275 275 275 275 274 273 272 272 272 272 272 271 271 271 271 271 271 271 270 270 270 270 270 270 270 271 271 271 271 271 271 271 270 271 271 271 271 271 271 271 270 270 270 270 270 270 270 270 270 271 272 274
278 278 278 278 277 277 276 275 275 275 274 274 274 273 272 272 272 272 271 271 271 271 270 270 270 270 270 270 270 269 269 270 271 270 271 271 270 271 270 270 270 270 271 270 270 270 270 270 270 270 270 270 269 270 270 270 270 270 270 271 271 273
278 277 277 276 276 276 275 275 274 274 273 273 273 272 272 271 271 271 270 270 270 269 269 269 269 269 269 269 269 269 269 269 270 270 270 270 270 270 270 270 270 270 270 269 269 269 269 270 270 270 270 269 269 269 270 270 270 270 270 270 269 270
278 277 276 276 276 275 274 274 274 274 273 272 272 271 271 271 271 270 270 269 269 269 269 269 268 269 268 268 268 269 269 269 269 270 269 269 269 270 270 269 269 269 269 268 268 269 268 269 269 269 269 269 269 269 269 270 270 270 270 269 270 270
277 277 276 276 275 274 274 274 274 273 272 272 272 271 271 270 270 270 269 269 268 268 268 268 268 268 268 268 268 268 268 269 269 269 269 269 269 268 268 268 268 268 268 267 267 267 268 268 268 268 268 269 269 269 269 269 270 270 271 271 270 270
277 277 277 276 275 274 274 273 273 272 272 271 271 270 270 270 269 269 268 268 267 267 267 267 267 267 267 267 268 268 268 268 268 268 268 267 267 267 267 267 267 267 267 266 266 266 267 267 267 267 267 268 269 269 269 269 269 269 270 271 272 273
277 276 276 276 275 274 273 273 272 272 271 271 270 269 269 269 268 268 267 267 266 266 266 266 266 267 267 267 267 267 267 268 267 267 267 266 266 266 266 266 266 266 266 266 266 266 266 266 267 267 267 267 268 269 269 269 269 269 270 270 270 270
276 276 275 275 274 273 273 272 271 270 270 270 269 269 268 268 267 267 266 266 266 266 266 266 266 266 266 266 267 267 267 266 266 265 265 265 265 265 264 265 265 265 266 265 266 266 266 266 266 266 267 267 268 268 268 269 269 269 270 270 271 271
276 275 274 274 273 272 272 271 270 270 269 268 268 268 267 267 267 266 265 265 265 265 265 266 266 266 266 266 266 266 265 265 265 265 264 264 264 264 264 264 264 265 265 265 265 266 266 266 266 266 267 267 268 268 268 269 269 269 269 270 270 270
276 275 273 273 272 271 270 268 268 268 268 268 268 267 267 267 266 265 265 264 265 265 265 266 266 266 266 266 265 264 264 264 264 264 263 263 263 264 264 264 264 264 265 265 265 266 266 266 266 267 267 267 268 268 268 269 269 269 269 270 270 270
275 274 273 272 271 270 269 268 268 268 267 267 267 267 267 265 264 263 264 264 264 265 265 265 265 265 264 264 263 263 263 263 262 262 262 262 263 263 264 264 264 265 265 265 265 266 266 266 267 269 272 274 271 270 270 270 270 270 270 270 270 271
274 273 272 271 270 269 268 267 267 266 266 266 266 266 265 264 263 263 263 263 263 264 264 264 264 263 262 262 262 261 261 261 261 261 261 262 262 263 263 264 264 265 266 265 265 265 266 267 267 272 274 275 276 274 272 272 272 272 272 272 272 272
273 272 271 270 269 268 267 266 266 265 265 266 265 265 264 263 263 262 262 262 263 263 263 262 262 261 261 261 260 260 260 260 260 260 261 261 262 263 264 264 265 265 265 265 265 265 266 267 271 274 275 276 277 277 274 273 273 273 273 273 272 272
273 272 271 269 268 267 266 266 265 265 265 265 265 263 262 262 262 262 262 262 262 262 262 261 260 259 259 259 259 259 259 259 260 260 261 261 263 264 264 264 264 264 264 264 264 264 265 266 271 273 275 276 277 277 277 274 274 274 274 274 273 273
273 272 270 269 268 267 266 266 265 265 265 264 263 262 262 261 261 261 261 261 261 261 260 260 258 258 258 259 259 259 259 259 259 260 262 263 263 263 263 263 263 263 263 264 264 264 264 265 269 273 275 276 277 278 278 275 275 275 274 274 274 274
272 270 268 267 266 266 265 265 264 264 263 262 261 261 260 260 260 260 260 260 260 259 259 258 258 257 258 258 258 258 258 259 260 261 262 262 263 262 262 262 262 262 262 263 263 263 264 265 271 274 275 276 277 278 278 275 276 276 275 275 274 274
270 268 267 267 266 265 265 264 263 262 261 261 261 260 260 259 258 259 259 258 258 258 258 257 257 257 257 257 257 257 258 259 260 260 262 262 262 262 262 262 262 261 261 262 263 263 264 265 272 273 275 276 277 279 276 276 276 275 275 275 275 275
269 268 267 266 265 264 263 263 261 260 260 260 259 259 258 258 257 257 258 257 257 257 257 257 256 256 256 257 257 257 258 259 259 260 261 261 261 261 261 260 261 261 262 262 263 263 264 265 269 273 275 276 277 277 275 276 275 275 274 274 275 275
267 266 265 264 264 263 262 261 260 260 259 258 258 257 258 257 256 257 256 257 257 256 256 256 256 255 256 256 256 257 258 259 260 260 261 260 260 260 260 260 261 261 262 262 263 264 264 266 269 274 275 276 277 277 274 274 275 274 274 274 274 274
266 265 264 263 262 262 261 261 260 259 258 258 258 258 257 256 256 256 256 256 256 256 256 256 255 255 255 255 256 257 257 258 259 259 260 260 260 260 260 261 261 261 262 263 264 268 267 266 268 273 274 276 277 275 274 274 274 274 274 274 273 274
264 263 262 261 261 261 260 260 259 258 258 258 258 257 256 256 256 256 256 256 256 255 255 255 254 255 255 255 256 257 258 259 259 259 259 259 259 259 260 261 261 262 263 264 265 265 266 266 267 270 275 276 276 277 274 274 274 273 274 274 273 273
264 262 262 261 261 260 260 259 258 257 257 257 257 256 256 256 256 255 255 255 254 254 254 254 254 254 255 256 256 258 258 258 258 258 258 258 259 259 260 261 262 263 263 265 265 266 267 268 269 270 274 275 276 277 276 274 274 274 274 274 274 273
262 261 261 260 260 260 259 258 257 257 257 256 256 256 257 256 255 254 253 253 253 253 253 253 254 255 255 256 257 257 257 258 258 258 258 258 258 259 260 261 263 263 264 265 266 266 267 269 271 269 272 274 275 276 277 274 274 276 276 275 274 274
261 260 260 260 259 259 259 257 257 257 256 256 256 256 256 255 254 253 252 252 252 252 252 253 253 254 255 256 256 256 256 257 257 257 257 258 258 259 260 262 263 263 264 265 265 266 268 268 269 271 270 273 275 276 277 278 277 279 277 276 275 275
261 260 259 259 259 259 258 257 257 256 256 257 256 256 255 253 253 251 250 250 251 251 252 253 253 254 255 255 256 255 255 256 256 257 257 258 259 260 261 261 262 264 264 264 265 266 267 268 268 270 272 271 274 276 277 278 278 279 276 276 276 277
260 259 258 258 258 258 257 257 256 256 255 256 255 255 254 252 250 249 249 249 249 250 251 252 253 254 254 255 255 255 255 255 256 255 256 258 259 260 260 261 263 264 263 264 264 265 266 267 267 267 269 273 274 275 276 277 277 278 278 276 276 278
259 258 257 257 257 257 257 256 257 255 256 255 255 254 253 250 248 249 248 248 249 249 250 251 253 254 255 254 255 255 255 255 255 255 256 258 259 260 260 261 264 264 264 264 264 265 266 266 266 267 267 270 272 273 274 276 276 276 277 278 277 279
258 257 257 256 257 256 256 256 256 256 255 254 254 253 251 248 249 249 248 247 248 249 250 251 253 254 254 254 254 254 255 255 255 256 257 258 259 260 261 263 264 264 264 263 264 265 265 265 266 266 267 269 270 270 271 272 272 275 276 275 276 278
258 257 257 256 257 256 255 255 255 254 254 254 253 250 249 249 250 248 246 246 247 249 250 251 255 254 253 253 254 254 253 254 255 256 257 258 259 260 262 263 264 263 264 264 264 264 265 265 265 266 267 269 269 270 271 271 271 272 273 273 275 277
258 257 257 257 257 255 255 254 254 254 254 253 251 249 249 249 249 246 246 247 248 249 252 252 251 252 252 253 253 254 255 254 256 258 258 260 261 263 264 264 264 265 265 265 264 264 264 264 265 266 272 270 273 270 270 270 270 272 272 274 278 278
258 258 257 257 256 255 254 253 253 253 254 252 251 249 248 248 248 245 246 248 248 249 251 251 251 250 252 251 252 253 254 258 263 261 260 260 265 268 269 269 265 266 266 266 266 266 265 265 266 272 273 273 273 273 274 274 274 275 274 275 278 281
258 258 257 256 255 254 253 253 253 252 253 252 252 250 248 248 247 246 247 248 247 250 252 251 251 252 252 251 252 252 252 253 255 262 264 265 266 267 268 269 269 270 270 267 265 268 271 271 272 272 272 272 272 272 273 273 273 274 275 274 272 280
257 257 256 256 255 254 253 252 252 252 252 251 250 250 249 248 248 246 246 247 248 251 252 252 252 252 251 251 252 252 252 251 251 253 260 264 264 266 267 267 268 269 269 270 269 268 266 269 270 272 271 271 271 271 271 271 271 273 273 272 271 266
258 257 256 255 254 253 253 252 251 251 251 250 250 249 247 247 247 246 246 247 249 251 252 252 251 251 251 250 251 251 252 251 251 250 251 254 261 264 264 265 266 267 268 269 269 271 271 270 270 271 271 271 270 270 269 270 269 271 271 269 263 262
258 257 255 254 253 253 252 252 252 251 251 250 249 248 247 246 246 246 245 247 249 251 251 251 251 251 250 250 251 251 251 251 251 250 251 251 251 253 258 261 264 265 266 267 268 269 270 270 270 270 270 270 269 269 268 267 264 269 270 267 260 261
256 255 254 254 253 253 253 251 251 251 249 247 246 246 246 245 246 245 249 251 252 250 251 251 252 251 250 251 251 251 251 250 251 251 251 250 250 250 251 252 254 259 264 263 263 267 269 269 269 269 269 269 269 267 266 263 259 258 258 259 260 260
255 254 254 253 253 253 251 250 251 249 247 246 245 246 246 245 244 247 249 249 250 250 251 250 248 249 250 251 251 250 250 251 250 250 250 250 250 250 250 251 252 253 259 264 264 267 267 267 267 268 268 267 267 266 263 253 255 257 257 258 259 260

ECMWFFLT1_sfc_thetae_030.txt.gz
Theta_e
292 292 291 291 290 290 289 289 289 289 289 288 287 286 285 285 284 284 283 282 281 281 280 280 279 279 278 278 278 278 277 277 277 277 277 278 278 277 278 277 277 277 277 276 276 276 276 276 276 276 276 276 275 275 275 275 276 275 275 276 276 276
291 291 290 289 289 289 289 288 288 288 288 287 287 286 285 284 283 283 281 281 280 280 279 279 278 278 278 277 277 277 277 277 277 277 276 277 277 277 277 276 276 276 275 275 275 275 275 275 275 275 275 274 274 274 274 274 274 274 274 274 275 275
291 290 290 289 289 289 288 288 287 287 287 286 286 285 284 283 282 282 281 280 280 279 278 278 277 277 277 276 276 276 276 276 276 276 277 276 276 276 276 275 275 275 274 274 274 274 274 273 273 274 274 273 273 273 273 273 273 273 273 273 273 274
290 289 288 288 287 287 287 287 287 286 286 286 285 284 283 282 281 281 280 280 279 278 277 277 277 276 276 275 275 275 275 276 276 276 275 275 275 275 275 274 274 274 273 273 273 273 273 273 273 273 273 272 272 272 272 272 272 272 272 272 272 275
289 288 287 286 286 286 286 286 286 285 285 285 284 283 282 282 281 280 279 278 277 277 276 276 275 275 275 274 275 275 275 275 275 275 274 274 274 275 274 273 273 273 272 272 272 272 272 272 272 272 272 271 271 271 271 272 271 271 271 271 274 273
288 287 286 286 285 285 285 285 285 285 284 284 283 282 282 281 280 279 278 277 276 276 275 275 274 274 274 274 274 274 274 274 274 274 274 274 274 273 273 273 272 272 271 271 271 271 271 271 271 271 272 271 271 271 271 271 271 271 271 271 272 271
286 286 286 285 285 285 285 284 284 284 283 283 282 282 280 279 278 277 276 276 275 275 274 274 274 273 273 273 274 273 273 273 274 274 273 273 272 272 272 272 272 271 271 270 270 270 270 271 271 271 271 271 271 271 271 271 271 271 272 271 271 271
286 285 285 285 285 284 284 284 284 283 283 282 282 280 279 277 277 276 275 275 274 274 273 273 273 273 273 273 273 273 273 273 273 273 272 272 271 271 271 270 270 270 270 270 270 270 270 271 271 271 271 271 271 271 271 271 271 272 271 270 270 270
285 285 285 285 284 284 284 283 283 282 281 280 280 279 278 277 276 275 275 274 274 273 273 273 273 273 273 273 273 273 273 272 272 271 271 271 270 269 269 269 269 269 270 270 270 270 270 270 271 271 271 271 271 271 271 270 271 270 270 270 270 270
286 285 285 284 284 284 283 283 282 281 280 279 278 278 276 275 275 274 274 273 273 273 273 273 273 273 272 272 272 272 271 271 271 270 270 269 269 268 268 268 268 269 269 269 270 270 271 271 271 271 271 271 270 270 271 270 270 270 271 271 271 272
286 285 285 284 284 283 282 282 281 281 280 279 277 276 275 275 274 273 273 273 273 273 273 273 272 272 272 271 271 270 270 270 269 269 268 268 268 268 268 268 268 268 269 269 270 270 270 270 270 270 270 270 270 271 271 271 271 271 271 271 271 272
287 285 285 284 283 283 282 281 280 279 278 277 276 275 275 274 273 273 272 272 272 272 272 272 271 271 271 270 270 269 269 268 268 267 267 267 267 267 268 267 268 268 269 269 270 270 269 269 270 270 272 273 272 272 272 272 271 271 271 271 271 272
287 285 284 284 283 283 281 281 280 279 278 276 275 274 274 273 272 272 272 272 272 272 271 271 270 270 269 269 268 268 267 266 266 266 266 266 266 266 267 267 268 268 269 269 269 268 269 269 269 271 274 275 276 273 272 272 272 273 273 273 273 273
286 285 284 284 283 283 281 280 279 278 276 275 274 273 273 272 272 271 271 272 271 271 270 270 269 268 268 267 266 266 265 265 264 264 265 265 265 266 267 267 268 268 268 268 268 268 268 268 270 273 274 275 275 276 273 273 273 273 274 274 274 274
287 286 285 284 283 282 281 280 278 277 276 274 274 272 271 271 271 271 270 270 270 269 269 269 268 267 266 266 265 264 264 263 263 263 263 264 265 266 266 267 267 267 267 267 267 267 268 268 270 272 274 275 276 276 276 274 274 273 273 274 274 274
287 286 285 285 284 283 281 279 278 277 275 274 272 271 271 270 270 270 269 269 268 268 268 267 266 265 265 264 263 263 263 263 263 263 264 264 265 265 265 266 266 266 266 266 266 266 267 267 269 272 274 275 276 277 277 274 274 273 273 273 273 273
287 286 285 284 283 281 279 278 277 275 273 272 271 271 270 269 269 268 268 267 268 267 266 266 265 264 264 263 263 262 262 262 263 263 264 264 265 265 264 265 265 265 265 265 265 265 266 267 271 273 274 275 276 277 277 274 273 273 273 273 273 273
287 286 285 284 281 279 278 277 275 273 272 271 270 269 268 268 267 267 267 267 266 265 265 264 264 263 263 263 262 262 262 262 262 262 263 264 264 265 265 265 265 264 264 265 265 265 265 267 271 273 274 275 276 277 274 273 273 272 272 272 273 273
287 286 284 282 280 277 277 275 273 272 269 268 268 267 267 267 266 266 266 265 265 264 265 264 263 262 261 262 261 261 261 262 262 263 264 263 263 264 263 263 264 264 264 264 264 264 265 266 269 273 274 275 276 275 273 273 272 272 272 272 273 273
286 284 282 279 277 276 274 272 271 269 268 267 267 266 266 265 265 265 264 264 264 264 263 263 262 261 261 261 261 261 261 262 262 263 263 262 262 262 263 263 263 264 264 264 264 265 265 266 270 273 274 275 276 275 272 272 272 271 272 272 273 273
284 281 279 277 274 273 272 271 270 268 267 267 266 266 266 265 265 264 264 264 264 263 262 262 261 261 261 260 261 261 260 261 261 262 262 262 262 262 263 263 263 263 264 264 265 267 267 267 269 272 274 275 276 274 272 272 272 271 271 272 272 273
278 277 276 275 274 272 271 270 269 268 267 266 266 265 265 266 265 265 264 263 262 262 261 261 260 260 259 260 260 260 260 261 261 262 261 261 262 262 263 263 263 262 263 265 266 267 267 268 269 270 274 275 275 276 273 273 271 271 271 272 272 272
278 276 276 275 272 270 270 269 268 267 267 266 265 265 266 266 265 263 263 262 261 260 260 260 259 259 259 260 259 260 260 261 261 261 260 260 261 261 261 261 262 263 264 266 267 267 268 269 269 270 273 274 275 276 275 272 272 272 272 271 271 271
276 275 273 271 269 268 268 268 267 267 266 265 265 266 266 264 263 262 261 261 260 259 259 259 259 259 258 259 259 259 260 261 260 260 260 261 261 260 260 261 262 263 264 266 267 268 268 269 271 269 272 273 275 275 276 273 273 273 272 271 270 270
274 273 271 269 268 268 268 268 267 266 265 265 266 265 263 262 261 260 260 260 259 258 258 258 258 258 258 258 259 258 259 260 259 259 259 259 260 260 260 262 263 264 264 265 267 268 268 268 269 271 270 273 275 276 276 276 275 276 273 270 269 270
273 270 268 267 267 267 268 268 267 266 265 266 265 262 261 260 260 259 259 258 257 257 257 257 257 258 258 258 258 258 258 258 258 259 260 260 260 261 261 263 263 264 264 265 266 267 268 268 268 270 272 272 274 276 276 276 276 276 272 271 270 270
270 268 266 267 266 266 267 268 267 266 266 265 262 261 260 259 258 258 257 257 257 256 257 257 257 257 258 258 258 258 259 258 258 259 260 260 261 262 261 262 263 263 265 265 265 266 267 267 268 268 270 273 274 275 275 275 275 275 275 270 270 271
268 266 265 265 266 266 267 268 268 266 266 262 261 261 259 258 257 257 256 256 256 256 256 256 257 257 258 258 259 258 259 259 259 260 260 261 261 261 261 262 263 264 264 264 265 265 266 266 267 268 269 271 272 273 274 274 274 273 273 273 271 273
266 265 264 264 265 265 266 267 267 267 263 261 261 260 258 257 256 256 255 255 256 256 256 257 258 258 257 257 258 259 259 259 260 260 260 261 261 261 262 263 264 264 264 264 264 265 265 265 266 267 269 270 270 270 271 270 269 271 272 270 270 271
266 264 264 263 264 265 265 265 266 263 261 261 260 257 256 256 257 256 255 256 256 257 257 258 257 258 259 258 258 259 260 260 260 260 261 261 261 261 262 263 264 264 264 264 264 264 265 265 266 267 268 269 270 270 270 269 268 268 268 268 269 269
266 265 264 264 264 264 264 264 262 261 261 260 257 256 256 257 256 255 255 256 257 257 258 258 258 259 259 258 257 258 260 259 260 261 261 263 263 264 264 264 265 265 265 265 264 264 264 265 265 267 272 271 273 270 269 268 268 268 268 270 272 268
266 265 264 264 263 263 263 262 260 260 260 258 257 257 257 256 255 255 256 256 257 258 258 258 257 257 258 258 258 258 258 259 262 262 262 263 266 267 268 268 266 266 266 265 266 266 265 265 267 272 273 273 273 273 273 272 272 272 270 271 271 268
266 265 264 263 263 262 261 260 259 259 258 257 257 257 256 256 256 256 256 256 257 258 258 258 258 258 258 258 258 258 258 259 260 263 265 265 266 266 267 268 268 268 269 267 266 267 270 271 272 272 273 273 272 273 272 272 271 271 272 271 266 263
265 264 264 263 262 261 260 259 258 257 257 256 257 257 256 257 257 256 256 257 258 258 258 259 258 258 257 258 258 258 258 258 259 261 265 266 265 266 266 266 267 268 268 269 268 267 266 269 271 272 272 272 272 272 271 271 270 270 271 270 268 262
265 265 264 262 261 260 259 258 257 256 256 256 256 257 257 258 258 257 257 258 257 257 257 258 257 257 257 257 256 257 257 257 257 258 259 260 263 265 265 265 266 267 267 268 268 269 269 270 271 271 271 271 271 271 270 270 268 269 269 268 262 261
265 264 263 261 260 259 258 257 256 256 256 256 256 257 257 258 258 257 257 257 257 258 258 258 258 257 257 257 257 257 256 255 255 255 254 255 256 258 260 263 264 265 265 266 267 268 269 269 270 270 270 270 270 270 270 268 263 266 267 265 260 261
265 263 261 260 259 258 258 257 256 256 256 256 256 256 257 257 257 257 256 256 258 259 258 258 258 257 256 256 256 256 255 255 254 254 254 254 253 253 254 255 256 259 263 262 263 266 268 268 269 269 269 269 269 269 268 265 260 259 259 260 260 260
263 262 260 259 259 258 257 256 256 256 255 255 255 256 256 256 256 257 257 257 257 258 258 257 257 257 257 257 256 256 255 254 254 254 254 253 253 252 253 254 255 254 258 262 263 265 266 267 268 268 268 268 268 268 265 258 257 257 257 258 259 259

ECMWFFLT1_sfc_thetae_033.txt.gz
Theta_e
299 299 298 298 297 296 295 295 294 294 293 293 292 291 291 289 289 288 288 287 286 286 285 284 284 283 283 283 283 282 281 280 280 280 280 280 280 280 280 279 279 279 279 279 278 278 278 278 278 278 278 278 277 277 277 277 277 276 276 277 277 277
299 298 297 296 296 295 295 294 294 293 293 292 291 291 290 289 288 287 286 286 285 284 284 284 283 282 282 282 281 280 280 280 280 280 280 280 280 279 279 279 279 278 278 278 278 277 277 277 277 277 277 276 276 276 276 276 276 275 275 275 276 276
298 297 297 296 296 295 294 293 292 292 292 291 291 290 288 287 287 286 286 285 284 284 283 282 282 281 281 280 280 280 279 279 279 279 279 279 279 279 279 278 278 278 277 277 277 276 276 276 276 276 276 275 275 275 275 275 275 274 274 274 274 275
298 296 295 295 294 293 292 292 292 291 291 290 290 289 288 287 286 286 285 284 284 283 282 281 281 280 280 279 279 279 279 279 279 279 279 278 278 278 278 277 277 277 277 276 275 275 275 275 275 275 275 274 274 274 274 274 274 273 273 273 273 273
297 294 293 292 292 292 291 291 291 290 290 290 289 288 287 287 286 285 284 283 282 282 281 281 280 279 279 278 278 278 278 278 278 278 277 277 277 278 277 277 276 276 275 275 275 274 274 274 274 274 274 274 273 273 273 273 273 273 272 272 272 272
295 293 291 291 291 290 290 290 290 290 290 289 289 288 287 286 285 284 283 282 281 281 280 279 279 278 278 277 278 277 278 278 278 278 277 277 277 276 277 276 276 275 274 274 274 274 273 273 274 273 273 273 273 272 272 273 273 272 272 272 272 272
292 292 292 291 290 290 290 290 289 289 289 289 288 288 287 285 285 283 282 281 280 280 279 278 278 277 277 277 277 277 277 277 277 277 276 276 276 276 275 275 275 274 273 273 273 273 273 273 273 273 273 273 273 273 272 272 272 272 272 272 272 273
292 291 291 291 290 289 289 289 289 288 288 288 288 287 285 284 283 282 281 280 279 278 278 277 277 276 276 276 277 276 276 276 276 276 276 275 275 274 274 273 273 273 273 273 273 273 273 273 273 272 272 272 272 272 272 272 272 272 272 272 272 272
292 291 290 291 290 289 288 288 288 288 287 287 287 286 284 283 282 281 280 279 278 277 277 276 276 276 276 276 276 276 276 275 275 275 274 275 274 273 273 273 272 273 272 272 272 272 272 272 272 272 272 272 272 272 272 272 272 272 272 272 273 273
293 291 290 289 289 289 288 288 288 287 287 286 286 284 283 282 281 280 279 278 277 277 276 276 276 276 276 276 276 275 275 275 275 274 274 273 272 272 272 272 271 272 272 272 271 272 272 272 272 272 272 272 272 272 272 271 271 272 272 272 273 273
294 292 290 289 289 288 287 287 287 286 286 286 285 283 281 281 279 278 278 277 277 276 276 276 276 276 276 275 275 274 274 274 273 273 273 272 271 271 271 271 271 270 270 271 271 271 272 272 272 272 272 271 271 272 272 272 273 273 273 273 273 273
295 294 291 289 288 287 286 286 286 285 285 284 282 281 280 280 279 278 277 277 276 276 276 276 275 275 275 274 274 274 273 273 272 272 271 270 270 270 270 270 270 270 270 270 271 271 272 271 272 273 274 274 273 273 273 273 273 273 273 273 273 273
295 294 292 290 288 287 286 286 285 285 284 283 281 280 279 279 278 277 277 276 276 276 275 275 274 274 273 273 273 273 272 271 271 270 270 269 269 269 269 269 269 270 270 271 271 271 271 271 271 273 275 275 277 275 274 273 273 274 274 274 274 273
295 294 292 290 289 287 286 285 285 284 283 282 280 279 279 278 277 277 276 276 276 275 274 274 274 273 273 273 272 271 270 270 269 268 268 268 268 268 269 269 269 270 270 270 270 270 270 270 272 274 275 276 276 276 275 274 274 274 274 274 274 274
295 295 294 292 289 288 286 285 284 283 282 280 280 278 278 277 277 276 276 275 275 274 274 274 273 272 271 271 270 269 268 267 267 267 267 266 267 268 268 268 269 269 270 270 269 269 270 270 272 273 274 275 276 277 276 275 274 274 274 274 274 273
297 295 294 292 290 289 287 286 284 283 282 280 279 277 277 276 276 276 275 274 274 273 273 273 271 271 270 269 268 267 266 266 266 266 267 267 267 267 267 268 268 268 268 269 269 268 269 269 271 273 274 276 276 277 277 275 274 274 274 273 273 273
297 294 292 291 290 287 286 284 283 282 279 278 277 277 276 276 275 275 274 273 273 272 272 271 270 269 268 267 267 266 265 265 265 266 266 266 267 267 267 267 267 267 267 267 267 267 267 268 271 273 275 275 276 277 277 274 274 273 273 273 274 274
295 293 291 290 288 285 284 283 282 279 277 277 276 276 276 275 274 273 273 272 271 271 271 269 269 268 267 266 265 265 265 265 265 265 266 266 267 267 267 267 267 266 266 266 266 266 266 267 271 273 274 275 276 277 274 273 273 273 273 273 273 274
295 293 290 287 286 284 283 282 280 278 276 276 275 275 275 274 273 272 272 271 270 270 269 269 267 266 266 265 265 264 264 265 265 265 266 265 266 266 266 266 266 266 266 265 265 265 265 266 269 272 274 275 276 275 273 273 272 272 272 273 273 274
293 291 289 286 285 284 282 280 279 277 276 275 274 274 273 273 272 271 271 270 269 269 268 268 267 266 265 265 264 264 265 265 265 265 266 265 265 265 266 266 265 265 266 265 265 265 265 266 269 272 274 275 275 275 273 272 272 272 272 272 273 274
290 289 288 286 284 283 281 280 278 277 275 274 273 273 271 271 271 270 270 269 268 268 267 266 266 266 265 264 264 264 264 265 265 265 265 265 265 264 265 265 265 265 265 265 265 267 267 267 269 272 273 274 275 274 273 272 272 271 272 272 272 274
287 286 285 284 284 282 280 279 277 276 274 273 272 271 271 271 271 271 270 269 268 267 266 266 265 265 264 264 264 264 264 264 264 264 264 264 264 264 265 265 265 264 264 265 266 266 267 267 268 270 273 274 275 275 273 273 271 271 271 272 272 272
287 286 286 285 283 280 279 278 277 275 273 272 271 271 272 272 271 269 268 267 266 265 265 265 265 264 264 264 263 263 263 264 264 264 263 262 263 264 264 263 263 263 264 266 267 267 267 268 269 270 273 274 274 275 275 272 272 272 272 272 272 272
286 286 285 283 280 279 278 277 276 275 273 272 271 272 271 270 269 268 267 266 265 264 263 263 263 263 263 262 262 262 262 264 264 263 262 263 263 262 261 262 263 264 265 266 267 267 268 269 271 270 271 273 274 275 276 273 273 274 273 271 271 271
283 284 283 281 279 278 278 277 276 274 273 271 272 271 270 269 268 267 266 264 263 263 262 262 261 261 261 261 262 262 262 262 261 261 261 262 262 261 261 262 264 264 265 265 267 268 268 269 269 271 270 272 274 275 276 276 275 276 274 271 270 270
282 281 280 277 277 277 277 276 275 274 271 272 272 270 269 267 266 265 263 262 262 261 261 261 260 260 260 260 261 261 262 261 261 261 261 262 262 263 263 264 264 264 264 265 266 267 268 268 269 270 271 271 274 275 276 276 276 276 273 272 270 270
282 280 277 276 275 275 275 277 275 273 272 272 270 269 267 265 264 263 262 261 260 260 259 259 259 260 260 260 261 260 261 261 261 261 262 262 263 264 263 264 264 264 265 265 265 266 267 267 268 268 270 272 273 274 275 275 276 275 275 271 270 270
282 279 276 274 273 273 274 275 276 272 272 270 268 267 265 263 262 261 260 260 259 259 259 259 259 260 260 260 261 261 262 261 261 263 263 263 263 263 263 263 264 265 265 265 265 265 266 267 267 267 268 270 272 273 274 274 274 274 274 273 270 273
279 277 275 272 272 272 273 274 275 273 270 267 267 265 263 262 261 260 259 259 259 259 259 259 259 259 259 260 261 261 262 262 263 263 263 263 263 263 263 264 264 265 265 264 265 265 265 266 266 267 268 270 271 271 271 271 271 272 272 270 269 271
279 277 274 272 271 271 271 272 273 271 267 266 265 263 262 261 261 260 259 259 259 258 259 259 260 259 259 259 260 261 262 262 263 263 263 264 263 263 263 264 264 264 264 264 264 265 265 265 266 267 268 270 270 270 271 270 270 269 269 268 269 269
278 277 274 272 271 270 271 271 271 268 266 265 263 261 261 261 260 259 259 259 259 259 260 260 259 260 260 260 261 262 263 262 262 264 264 265 265 265 264 264 265 265 265 265 265 264 264 265 265 267 272 271 273 271 270 269 269 269 269 270 273 267
278 276 273 272 270 270 270 270 268 266 265 263 262 261 261 260 259 259 258 259 259 259 260 259 260 261 261 260 260 261 261 263 266 265 264 264 266 268 269 268 266 266 266 265 266 266 265 265 267 272 273 273 273 273 273 273 273 272 270 272 271 267
276 275 273 271 269 269 269 269 266 264 263 262 261 262 261 260 259 259 259 259 259 259 259 259 260 260 261 261 261 261 260 261 264 267 267 267 267 267 268 268 268 269 268 267 266 267 269 270 271 272 272 272 272 273 273 272 272 271 271 272 266 263
275 273 272 271 269 268 269 267 264 263 261 261 262 262 261 260 260 259 259 259 260 260 260 260 260 261 261 261 262 262 262 261 261 263 267 267 267 268 268 268 268 268 268 268 268 267 267 269 271 272 271 271 272 272 272 271 270 270 270 270 268 261
275 274 273 271 268 267 267 264 263 261 261 261 262 261 261 261 261 260 260 260 260 260 261 261 261 261 261 260 261 261 262 262 262 262 263 265 266 267 267 267 267 268 268 268 268 269 269 269 270 271 271 271 271 271 271 270 269 269 269 268 262 260
276 275 273 270 267 267 266 264 261 260 260 260 261 261 262 262 261 261 260 260 260 260 261 261 261 261 261 261 261 261 261 261 262 262 263 261 260 263 265 265 265 266 266 267 267 268 269 269 270 270 270 270 270 270 270 268 264 267 268 266 260 260
276 274 271 268 267 266 264 263 260 259 260 260 261 262 262 262 262 261 260 260 261 261 261 261 262 261 261 261 260 260 259 258 258 258 259 260 259 259 258 257 258 262 265 264 264 266 268 268 269 269 269 269 269 269 268 265 260 259 259 260 260 260
274 273 270 267 266 265 263 261 260 259 259 260 261 262 262 262 262 261 261 261 261 261 262 261 261 261 260 260 260 260 259 258 257 257 256 256 256 256 255 256 257 255 259 263 263 265 266 267 268 268 268 268 268 267 264 258 257 257 258 258 259 259